Burns Flat, OK

8:09 PM CST on February 21, 2017 (GMT -0600)
Clinton-Sherman

Weather History for KCSM - November, 2013

Change the Weather History Date:

Saturday, November 23, 2013

  Actual Average Record
Temperature  
Mean Temperature 32 °F -  
Max Temperature 37 °F 55 °F 77 °F (2005)
Min Temperature 28 °F 34 °F 21 °F (2003)
Degree Days  
Heating Degree Days 32    
Moisture  
Dew Point 17 °F    
Average Humidity 55    
Maximum Humidity 74    
Minimum Humidity 35    
Precipitation  
Precipitation 0.00 in - - ()
Sea Level Pressure  
Sea Level Pressure 30.65 in    
Wind  
Wind Speed 19 mph (NNE)    
Max Wind Speed 22 mph    
Max Gust Speed 31 mph    
Visibility 10 miles    
Events Rain    
Averages and records for this station are not official NWS values.
T = Trace of Precipitation, MM = Missing Value Source: NWS Daily Summary

Daily Weather History Graph

Daily Weather History Graph

Search for Another Location

Airport or City:

Trip Planner

Search our weather history database for the weather conditions in past years. The results will help you decide how hot, cold, wet, or windy it might be!

Date:

Astronomy

Nov. 23, 2013 Rise Set
Actual Time 7:20 AM CST 5:26 PM CST
Civil Twilight 6:52 AM CST 5:53 PM CST
Nautical Twilight 6:21 AM CST 6:24 PM CST
Astronomical Twilight 5:51 AM CST 6:55 PM CST
Moon 10:51 PM CST (11/23) 11:41 AM CST (11/23)
Length of Visible Light 11h 01m
Length of Day
10h 06m
Waning Gibbous, 69% of the Moon is Illuminated
Nov 23
Waning Gibbous
Nov 25
Last Quarter
Dec 2
New
Dec 9
First Quarter
Dec 17
Full

Hourly Weather History & Observations

Time (CST) Temp. Windchill Dew Point Humidity Pressure Visibility Wind Dir Wind Speed Gust Speed Precip Events Conditions
12:53 AM 28.9 °F 16.1 °F 17.1 °F 61% 30.61 in 10.0 mi North 19.6 mph - N/A   Overcast
1:53 AM 28.9 °F 16.5 °F 16.0 °F 58% 30.61 in 10.0 mi North 18.4 mph 31.1 mph 0.00 in   Overcast
2:53 AM 30.0 °F 16.9 °F 17.1 °F 59% 30.62 in 10.0 mi North 21.9 mph - 0.00 in   Overcast
3:53 AM 28.9 °F 15.4 °F 18.0 °F 64% 30.62 in 10.0 mi North 21.9 mph - N/A   Overcast
4:53 AM 30.0 °F 19.1 °F 19.9 °F 66% 30.63 in 10.0 mi North 15.0 mph - 0.00 in Rain Light Freezing Rain
5:38 AM 28.4 °F 15.8 °F 21.2 °F 74% 30.59 in 10.0 mi North 18.4 mph - 0.00 in   Overcast
5:53 AM 28.9 °F 17.7 °F 21.0 °F 72% 30.64 in 10.0 mi North 15.0 mph 24.2 mph 0.00 in   Overcast
6:53 AM 28.9 °F 17.7 °F 19.9 °F 69% 30.65 in 10.0 mi North 15.0 mph - N/A   Overcast
7:53 AM 30.9 °F 19.4 °F 16.0 °F 54% 30.67 in 10.0 mi North 17.3 mph - N/A   Overcast
8:53 AM 30.9 °F 19.1 °F 15.1 °F 52% 30.69 in 10.0 mi North 18.4 mph - 0.00 in   Overcast
9:53 AM 32.0 °F 20.1 °F 12.0 °F 44% 30.70 in 10.0 mi North 19.6 mph - N/A   Overcast
10:53 AM 34.0 °F 23.4 °F 10.0 °F 37% 30.70 in 10.0 mi NNE 17.3 mph 28.8 mph N/A   Overcast
11:53 AM 35.1 °F 24.8 °F 10.0 °F 35% 30.70 in 10.0 mi NNE 17.3 mph - N/A   Overcast
12:53 PM 36.0 °F 25.3 °F 10.9 °F 36% 30.66 in 10.0 mi NNE 19.6 mph 23.0 mph N/A   Overcast
1:53 PM 37.9 °F 28.5 °F 14.0 °F 38% 30.65 in 10.0 mi NNE 17.3 mph - N/A   Overcast
2:53 PM 37.9 °F 28.2 °F 15.1 °F 39% 30.63 in 10.0 mi NNE 18.4 mph - N/A   Overcast
3:53 PM 37.0 °F 26.2 °F 18.0 °F 46% 30.63 in 10.0 mi NNE 21.9 mph - N/A   Mostly Cloudy
4:53 PM 36.0 °F 26.0 °F 18.0 °F 48% 30.65 in 10.0 mi NNE 17.3 mph - N/A   Overcast
5:53 PM 35.1 °F 24.8 °F 19.9 °F 54% 30.66 in 10.0 mi NNE 17.3 mph - N/A   Mostly Cloudy
6:53 PM 34.0 °F 23.0 °F 21.9 °F 61% 30.68 in 10.0 mi North 18.4 mph - N/A   Overcast
7:53 PM 33.1 °F 22.2 °F 21.9 °F 64% 30.66 in 10.0 mi NNE 17.3 mph 27.6 mph N/A   Overcast
8:53 PM 32.0 °F 20.5 °F 21.9 °F 66% 30.66 in 10.0 mi NNE 18.4 mph - 0.00 in   Overcast
9:53 PM 30.9 °F 18.4 °F 19.9 °F 64% 30.67 in 10.0 mi NNE 20.7 mph 25.3 mph 0.00 in   Overcast
10:53 PM 30.9 °F 19.1 °F 19.9 °F 64% 30.65 in 10.0 mi NNE 18.4 mph - N/A   Overcast
11:53 PM 30.0 °F 17.9 °F 18.0 °F 61% 30.66 in 10.0 mi NNE 18.4 mph - N/A   Overcast